Epoch 2009 Nov. 25.0 TT = JDT 2455160.5 T 2009 Nov. 21.13438 TT MPC q 3.8883970 (2000.0) P Q n 0.00798318 Peri. 147.80670 -0.95697007 -0.27411834 a 24.7943175 Node 17.08203 +0.14524875 -0.73655390 e 0.8431739 Incl. 18.91553 +0.25121919 -0.61834254 P 123.46
m1 = 5.0 + 5 logΔ + 20.0 log r